{"data":{"norad_id":66222,"epoch":"2026-09-20T15:53:10.129920Z","epoch_age_seconds":82698,"freshness":"FRESH","line1":"1 66222U 25244S   26263.66192280  .00028560  00000+0  85290-3 0  9995","line2":"2 66222  53.1581  42.6543 0001658  88.8297 271.2896 15.34410954 51534","mean_motion":15.34410954,"eccentricity":0.0001658,"inclination_deg":53.1581,"raan_deg":42.6543,"arg_perigee_deg":88.8297,"mean_anomaly_deg":271.2896,"bstar":0.0008529,"rev_number":5153,"period_min":93.847088111964,"perigee_km":461.53647689053,"apogee_km":463.80488871815,"semimajor_km":6840.8076828043,"source":"CELESTRAK","updated_at":"2026-09-21T09:00:35.842882Z"}}